Location: Dos Palmas
(32.4468°N, 116.8732°W)
Time: 04:27:23
(UTC+00:00)

COSMOS 2428 - Pass Details

Date: 20 June 2021
Orbit: 845 x 858 km, 70.9° (Epoch: 29 July)

Event Time Altitude Azimuth Distance (km) Brightness Sun altitude
Exits shadow 04:10:05 18° 114° (ESE) 1,988 4.0 -13.5°
Maximum altitude 04:11:08 19° 100° (E) 1,944 4.1 -13.7°
Drops below altitude 10° 04:14:57 10° 57° (ENE) 2,491 5.0 -14.3°
Sets 04:18:07 0° 40° (NE) 3,433 5.9 -14.8°
